Espace membre
Imprimable
Torhout, 19/06/2009, BEL - Nacht Van Vlanderen
Liste des rapports > Marathon - Results
Recherche: Page: [1]
83 Entrées
 
Les réclamations ne sont plus acceptées, les résultats sont considérés comme définitifs.
RangNrNomAgeIOCLigueRéelTempsTkmMoy.ScrLocalité
1.1326VAN DORPE Jo45BELAVR - A2:39:322:39:323:47 15.878ROESELARE
2.1090DECORTE Patrick49BEL2:47:512:47:543:59 15.0812GISTEL
3.1131DIERICK Dirk49BEL2:51:312:51:374:05 14.7513LANGEMARK
4.1380VERMEULEN Freddy45BELAVR - A2:56:522:56:564:12 14.3120MOORSELE
5.1269ROELANDTS Olivier48BELRCB - R2:57:142:57:344:13 14.2623BRUXELLES
6.1102DELLOBEL Heinz45BELMACW -3:07:373:07:484:28 13.4843DIKSMUIDE
7.1010BALANCK Hugo47BELROADRUN3:08:593:09:094:29 13.3848ZEDELGEM
8.1250PITTELJON Rik47BEL3:13:053:13:124:35 13.1057VARSENARE
9.1203LEROY Jacques47FRA3:13:563:14:414:37 13.0060SAINT ANDRÉ
10.1387VLEMINCKX Dirk47BELVITA -3:14:313:14:564:38 12.9962OVERMERE
11.1403WINTEIN Filip48BEL3:14:243:14:584:38 12.9963DUDZELE
12.1111DEPLAE Gino50BEL3:15:253:15:254:38 12.9664ROESELARE
13.1233NOLLET Koen48BEL3:15:593:16:144:40 12.9066ICHTEGEM
14.1011BALLEGEER Johan47BEL3:16:543:17:254:41 12.8271ASSEBROEK
15.1347VANDENHEEDE Jean-Marie48BEL3:19:433:19:434:44 12.6879KASTER
16.1041CAUDRON Marc48BELLEBB -3:19:313:19:464:45 12.6780DENDERMONDE
17.1336VAN WAMBEKE Peter46BEL3:20:493:21:214:47 12.5791ZELE
18.1293SNOEKS Jos48BELVMOL -3:21:403:21:504:47 12.5493EKSEL
19.1020BINTEIN Frankie45BEL3:21:513:22:114:48 12.5294ICHTEGEM
20.1234NYS Philippe50FRA3:22:063:22:534:49 12.48102RONCHIN
21.1049CLARASSO Jean Jacques49FRA3:23:103:23:104:49 12.46103ASPREMONT
22.1124DEVREKER Guy47BEL3:22:273:23:114:49 12.46104VARSENARE
23.1038CAMPOS Hernández Miguel49ESP3:23:323:23:514:50 12.42109MADRID
24.1099DEKIERE Filip48BELFLAC -3:23:523:24:194:51 12.39112ROESELARE
25.1513DEVOS Patrick483:24:253:24:304:51 12.38114
26.1272ROGIERS Paul49BELHAC - H3:24:333:24:534:52 12.36115ZEDELGEM
27.1287SERCU Filiep46BEL3:24:473:25:184:52 12.33118HEULE
28.1311SYSMANS Paul47BEL3:26:253:26:534:55 12.24121VOSSELAAR
29.1454WEIS Ralf50DEU3:27:043:27:144:55 12.22124
30.1281SCHIETGAT Dominiek46BEL3:27:173:27:474:56 12.18129KORTRIJK
31.1069DE CONINCK Wim46BEL3:28:123:28:484:57 12.13132ASSEBROEK
32.1087DECLERCK Patrick47BELMACW -3:29:003:29:114:58 12.10136WOUMEN
33.1385VLAEMYNCK Donaat46BEL3:28:393:29:334:58 12.08139NEVELE
34.1237PACQUE Hans46BELENERGY3:30:203:30:245:00 12.03147NIEUWPOORT
35.1061COUSSÉE Koenraad46BELROAD RU3:30:273:30:435:00 12.02150LICHTERVELDE
36.1333VAN RIET Wim46BEL3:30:243:30:525:00 12.01154BONHEIDEN
37.1413SALOME Alain49FRA3:30:483:31:365:01 11.96158RONCHIN
38.1505DEWAELE Luc473:31:153:31:455:02 11.96160
39.1337VAN WEZEMAEL Marnic47BEL3:31:093:31:555:02 11.95161HAMME
40.1184KERSCHIETER Danny48BEL3:31:553:32:115:02 11.93163BRUGGE
41.1504BELIS Erik49BEL3:32:193:32:415:03 11.90166DUISBURG
42.1468VAN DER HEYDEN Jan45BEL3:33:043:33:465:04 11.84173OOSTERZELE
43.1436LAUWYCK Geert49BEL3:33:383:33:535:05 11.84174
44.1216MASSCHELEIN Stefaan47BEL3:35:433:36:185:08 11.70184SINT-ANDRIES BRUGGE
45.1500GHEYSEN Dominiek47BEL3:40:343:41:085:15 11.45200HARELBEKE
46.1419VANBEVEREN Dirk50BEL3:41:103:41:245:15 11.44202KORTEMARK
47.1247PIETERS Rudi49BEL3:41:303:41:445:16 11.42205KLUIZEN
48.1374VERHAEGEN Paul48BEL3:43:323:43:445:19 11.32219KONTICH
49.1003AMOS Peter49GBR3:43:433:44:135:19 11.29222ORPINGTON
50.1503VAN BELLE Patrick48BEL3:49:093:49:175:27 11.04253PUTTE
51.1179HUYGHE Paul47BELKAAG -3:50:063:50:255:28 10.99257KAPRIJKE
52.1117DESCHACHT Jan46BEL3:50:343:51:235:30 10.94263ASSEBROEK
53.1046CLAEREBOUDT Jan47BEL3:53:013:53:115:32 10.86274LINT
54.1257QUENTIN Joerg46DEU3:53:033:53:255:32 10.85276BIENENBUETTEL
55.1075DE LANNOY Wim47BEL3:56:123:56:505:37 10.69288AALTER
56.1438PEENE Franky50BEL3:56:313:57:225:38 10.67289
57.1334VAN ROOSBROECK Rudi50BEL3:56:493:57:435:39 10.65291AARSCHOT
58.1014BEIRINCKX Eric48BEL3:56:513:57:455:39 10.65293RILLAAR
59.1474VANDENBOSSCHE Marc48BEL3:58:053:58:475:40 10.60302
60.1154GILLESPIE Angus47NLD3:58:583:59:145:41 10.58307DEN HAAG
61.1346VANDENBULCKE Filiep49BEL3:59:223:59:485:41 10.56310SNAASKERKE
62.1190LACEUR Danny47BEL3:59:484:00:245:42 10.53315MALDEGEM
63.1125DEVRIENDT Johan46BEL4:00:024:00:445:43 10.52318OUDENBURG
64.1510VAN MEENSEL Dieter474:03:434:04:285:48 10.36329
65.1283SCHREUTELKAMP Rob45BEL4:06:014:06:585:52 10.25335HEVERLEE
66.1261RANGOLAM Alex47UKR4:06:084:07:025:52 10.25336PETERBOROUGH
67.1015BENTEIN Benedict46BEL4:11:144:11:415:58 10.06341KORTEMARK
68.1169HOEHFURTNER Roger48UKR4:11:564:12:285:59 10.03343LOUGHTON
69.1163HENDRICKX Jack49NLD4:12:374:13:166:01 10.00346PUTTE
70.1448SCHAERLAKEN Marc45BEL4:15:224:16:196:05 9.88354VELDEGEM
71.1452VERHOEVEN Frank47BEL4:16:194:17:156:06 9.84358DILBEEK
72.1211LUCAS Patrick46BEL4:25:364:26:256:19 9.50384OOSTENDE
73.1373VERHAEGEN Jan49BELSPORTER4:31:424:32:196:28 9.30393ZOERSEL
74.1055COOPMANS Johan45BEL4:32:084:33:056:29 9.27395HOELEDEN
75.1050CLARYSSE Ghislain49BEL4:33:494:34:486:31 9.21399TORHOUT
76.1181JANSSENS Franky46BEL4:36:404:37:116:35 9.13404ZWANKENDAMME
77.1258QUEVALLIER Jean-Claude50FRA4:39:204:40:086:39 9.04412LESQUIN
78.1366VANSTEENKISTE Koen47BEL4:41:214:42:116:42 8.97417GISTEL
79.1240PANS Eddy47BEL5:17:065:18:017:33 7.96445DIEST
DSQ1390VROMAN Filip48BEL3:08:453:09:22ST ANDRIES
DNF1412PLASMANS Wilfried48BELVARSENARE
DNF1353VANGRYSPERRE Bart49BELROADRUNTORHOUT
DNF1519VANKEIRSBILCK Eddy49BEL
DNF: abandon; DSQ: disqualifié; Vitesse en km/h
Page: [1]